Regional Weather Roundup
Issued by NWS Albany, NY

Home | Current Version | Previous Version | Text Only | Print | Product List | Glossary On
Versions: 1 2 3 4 5 6 7 8 9 10 11 12 13 14 15 16 17 18 19 20 21 22 23 24 25 26 27 28 29 30 31 32 33 34 35 36 37 38 39 40 41 42 43 44 45 46 47 48 49 50
000
ASUS41 KALY 141010
RWRALY

NEW YORK STATE HOURLY WEATHER ROUNDUP
NATIONAL WEATHER SERVICE ALBANY NY
500 AM EST SUN FEB 14 2016

NOTE: "FAIR" INDICATES FEW OR NO CLOUDS BELOW 12,000 FEET WITH NO
SIGNIFICANT WEATHER AND/OR NO OBSTRUCTIONS TO VISIBILITY.

NYZ032-033-038>043-046>054-057>066-NYZ062>081-141100-
EAST


CITY           SKY/WX    TMP DP  RH WIND       PRES   REMARKS
ALBANY         PTCLDY   -13 -26  52 NW13      30.45R WCI -34
GLENS FALLS    CLEAR    -13 -28  47 NW9       30.43R WCI -31
POUGHKEEPSIE   CLEAR     -4 -21  44 NE12      30.42R WCI -22
NEWBURGH       CLEAR     -4 -17  54 NW16G28   30.37R WCI -25
MONTGOMERY     CLEAR     -4 -19  48 NW13G22   30.38R WCI -23
WHITE PLAINS   PTCLDY    -2 -17  49 NW24G37   30.32R WCI -26
ISLIP          PTCLDY     2 -14  47 NW17      30.36R WCI -18
NEW YORK CITY  PTCLDY     4  -9  55 NW22G31   30.40R WCI -18
CENTRAL PARK   CLEAR      3 -16  40 NW9G23    30.41R WCI -12
$$

NYZ005>009-017-018-044>046-055-056-141100-
CENTRAL


CITY           SKY/WX    TMP DP  RH WIND       PRES   REMARKS
FULTON         LGT SNOW -13 -20  71 CALM      30.50R
SYRACUSE       PTCLDY   -19 -24  77 CALM      30.51R
ROME           CLOUDY   -23 -30  70 CALM      30.51R
ELMIRA         CLEAR     -7 -16  65 W8        30.42R WCI -23
BINGHAMTON     CLEAR    -16 -21  78 NE3       30.29R
MONTICELLO     CLEAR    -11 -20  64 NW13G23   30.27R WCI -32
$$

NYZ026>034-041>043-141100-
NORTH


CITY           SKY/WX    TMP DP  RH WIND       PRES   REMARKS
WATERTOWN      CLOUDY   -37  32 100 CALM      30.53R
FORT DRUM      NOT AVBL
MASSENA        PTCLDY   -18 -27  63 W8        30.51R WCI -36
SARANAC LAKE   CLOUDY   -27 -33  73 SW5       30.23R WCI -41
PLATTSBURGH    CLEAR    -17 -29  54 VRB5      30.43R WCI -30
$$

NYZ001>004-010>016-019>021-141100-
WEST


CITY           SKY/WX    TMP DP  RH WIND       PRES   REMARKS
NIAGARA FALLS  CLOUDY    -9 -16  71 CALM      30.50R
BUFFALO        CLOUDY    -9 -14  78 S6        30.48R WCI -22
DUNKIRK        LGT SNOW  -2  -8  76 E8        30.49R WCI -17
JAMESTOWN      CLOUDY     0  -6  78 N3        30.31R
WELLSVILLE     PTCLDY   -12 -17  78 NW6       30.28R WCI -26
ROCHESTER      FLURRIES  -9 -14  78 W3        30.49R
PENN YAN       LGT SNOW  -7 -13  75 N3        30.43R
$$

             KEY
       WCI = WIND CHILL INDEX
       VSB = VISIBILITY
       HX  = HEAT INDEX
$$



USA.gov is the U.S. government's official web portal to all federal, state and local government web resources and services.